LXJ364 KITH-KSWF

Flight info

Callsign LXJ364
Flight time 0h 27m
Altitude 17000
Route DCT HNK V167 KERRI DCT
Aircraft E55P/M-SBDFGHJ2RWY/LB2

Departure

Time 2026-05-08 01:37
Airport Ithaca Tompkins Regional Airport (KITH)

Arrival

Time 2026-05-08 02:05
Airport New York Stewart International Airport (KSWF)
Time Latitude Longitude Altitude Speed Heading
2026-05-08 01:24 42.48866 -76.46006 1074 ft 0 kts 91°
2026-05-08 01:33 42.48867 -76.45992 1074 ft 2 kts 86°
2026-05-08 01:33 42.48876 -76.45976 1075 ft 4 kts 34°
2026-05-08 01:34 42.48904 -76.45966 1075 ft 5 kts 301°
2026-05-08 01:34 42.48942 -76.45978 1076 ft 7 kts 43°
2026-05-08 01:34 42.48986 -76.45922 1078 ft 9 kts 47°
2026-05-08 01:34 42.48955 -76.45850 1079 ft 11 kts 133°
2026-05-08 01:35 42.48891 -76.45754 1079 ft 14 kts 132°
2026-05-08 01:35 42.48819 -76.45648 1080 ft 16 kts 131°
2026-05-08 01:35 42.48741 -76.45535 1081 ft 16 kts 129°
2026-05-08 01:35 42.48667 -76.45425 1083 ft 16 kts 133°
2026-05-08 01:36 42.48583 -76.45300 1086 ft 19 kts 132°
2026-05-08 01:36 42.48486 -76.45155 1087 ft 20 kts 132°
2026-05-08 01:36 42.48427 -76.45049 1090 ft 11 kts 81°
2026-05-08 01:36 42.48476 -76.44978 1093 ft 11 kts 41°
2026-05-08 01:37 42.48543 -76.45023 1093 ft 25 kts 313°
2026-05-08 01:37 42.48929 -76.45591 1088 ft 135 kts 314°
2026-05-08 01:37 42.49691 -76.46744 1672 ft 188 kts 312°
2026-05-08 01:37 42.50515 -76.48029 2702 ft 188 kts 310°
2026-05-08 01:38 42.51425 -76.49229 3703 ft 188 kts 331°
2026-05-08 01:38 42.52815 -76.49529 3972 ft 231 kts
2026-05-08 01:38 42.54306 -76.48334 4204 ft 274 kts 48°
2026-05-08 01:38 42.55032 -76.45926 5049 ft 286 kts 84°
2026-05-08 01:39 42.55024 -76.43272 6078 ft 286 kts 90°
2026-05-08 01:39 42.54626 -76.40613 6913 ft 293 kts 116°
2026-05-08 01:39 42.53689 -76.38145 7784 ft 298 kts 121°
2026-05-08 01:39 42.52666 -76.35747 8688 ft 300 kts 123°
2026-05-08 01:40 42.51597 -76.33287 9552 ft 305 kts 124°
2026-05-08 01:40 42.50512 -76.30810 10427 ft 309 kts 124°
2026-05-08 01:40 42.49425 -76.28329 11298 ft 313 kts 124°
2026-05-08 01:40 42.48312 -76.25799 12099 ft 318 kts 125°
2026-05-08 01:41 42.47181 -76.23221 12921 ft 323 kts 125°
2026-05-08 01:41 42.46030 -76.20602 13725 ft 328 kts 126°
2026-05-08 01:41 42.44859 -76.17940 14508 ft 332 kts 126°
2026-05-08 01:41 42.43669 -76.15243 15351 ft 335 kts 126°
2026-05-08 01:42 42.42482 -76.12549 16231 ft 338 kts 126°
2026-05-08 01:42 42.41269 -76.09808 16898 ft 345 kts 126°
2026-05-08 01:42 42.39999 -76.06934 17006 ft 370 kts 126°
2026-05-08 01:42 42.38642 -76.03867 17037 ft 394 kts 126°
2026-05-08 01:43 42.37186 -76.00577 17010 ft 416 kts 125°
2026-05-08 01:43 42.35696 -75.97207 17011 ft 414 kts 126°
2026-05-08 01:43 42.34240 -75.93919 17006 ft 404 kts 126°
2026-05-08 01:43 42.32810 -75.90699 17008 ft 395 kts 126°
2026-05-08 01:44 42.31393 -75.87513 17009 ft 388 kts 126°
2026-05-08 01:44 42.30023 -75.84431 17006 ft 382 kts 126°
2026-05-08 01:44 42.28654 -75.81381 17006 ft 377 kts 127°
2026-05-08 01:44 42.27450 -75.78192 16998 ft 378 kts 115°
2026-05-08 01:45 42.26521 -75.74888 17006 ft 375 kts 114°
2026-05-08 01:45 42.25652 -75.71596 17012 ft 372 kts 114°
2026-05-08 01:45 42.24800 -75.68288 17022 ft 369 kts 113°
2026-05-08 01:45 42.23967 -75.65050 16994 ft 375 kts 113°
2026-05-08 01:46 42.23063 -75.61543 17091 ft 413 kts 113°
2026-05-08 01:46 42.22103 -75.57789 17052 ft 435 kts 112°
2026-05-08 01:46 42.21125 -75.53939 17034 ft 430 kts 112°
2026-05-08 01:46 42.20148 -75.50139 17021 ft 429 kts 112°
2026-05-08 01:47 42.19188 -75.46401 17035 ft 427 kts 112°
2026-05-08 01:47 42.18215 -75.42602 17013 ft 426 kts 112°
2026-05-08 01:47 42.17250 -75.38874 17013 ft 425 kts 112°
2026-05-08 01:48 42.15297 -75.31324 17000 ft 424 kts 113°
2026-05-08 01:48 42.14329 -75.27583 16992 ft 423 kts 113°
2026-05-08 01:48 42.13361 -75.23853 16992 ft 423 kts 113°
2026-05-08 01:48 42.12404 -75.20168 16993 ft 422 kts 113°
2026-05-08 01:49 42.11434 -75.16433 16994 ft 421 kts 113°
2026-05-08 01:49 42.10472 -75.12751 16994 ft 421 kts 113°
2026-05-08 01:49 42.09502 -75.09029 16988 ft 420 kts 114°
2026-05-08 01:49 42.08529 -75.05301 16986 ft 420 kts 114°
2026-05-08 01:50 42.07559 -75.01606 16996 ft 420 kts 114°
2026-05-08 01:50 42.06593 -74.97921 16996 ft 420 kts 114°
2026-05-08 01:50 42.05620 -74.94218 16978 ft 420 kts 114°
2026-05-08 01:50 42.04651 -74.90550 16975 ft 420 kts 114°
2026-05-08 01:51 42.03674 -74.86826 16979 ft 420 kts 114°
2026-05-08 01:51 42.02713 -74.83178 17000 ft 419 kts 114°
2026-05-08 01:51 42.01730 -74.79485 16989 ft 421 kts 114°
2026-05-08 01:51 42.00755 -74.75772 16809 ft 424 kts 113°
2026-05-08 01:52 41.99745 -74.71995 16442 ft 433 kts 113°
2026-05-08 01:52 41.98735 -74.68183 15995 ft 426 kts 113°
2026-05-08 01:52 41.97751 -74.64476 15597 ft 422 kts 113°
2026-05-08 01:52 41.96752 -74.60741 15032 ft 424 kts 112°
2026-05-08 01:53 41.95797 -74.57140 14522 ft 405 kts 112°
2026-05-08 01:53 41.94859 -74.53629 13991 ft 391 kts 112°
2026-05-08 01:53 41.93950 -74.50236 13463 ft 382 kts 112°
2026-05-08 01:53 41.93070 -74.46943 12937 ft 375 kts 112°
2026-05-08 01:54 41.92194 -74.43678 12448 ft 369 kts 111°
2026-05-08 01:54 41.91337 -74.40476 12056 ft 362 kts 112°
2026-05-08 01:54 41.90492 -74.37338 11677 ft 358 kts 111°
2026-05-08 01:54 41.89646 -74.34193 11282 ft 353 kts 112°
2026-05-08 01:55 41.88814 -74.31108 10883 ft 350 kts 112°
2026-05-08 01:55 41.87995 -74.28069 10497 ft 348 kts 112°
2026-05-08 01:55 41.87164 -74.25007 10133 ft 345 kts 112°
2026-05-08 01:55 41.86348 -74.21979 9797 ft 342 kts 112°
2026-05-08 01:56 41.85403 -74.19186 9301 ft 319 kts 127°
2026-05-08 01:56 41.83969 -74.17070 8710 ft 286 kts 136°
2026-05-08 01:56 41.82693 -74.15118 8447 ft 273 kts 135°
2026-05-08 01:56 41.81455 -74.13249 8231 ft 262 kts 135°
2026-05-08 01:57 41.80238 -74.11410 7961 ft 265 kts 134°
2026-05-08 01:57 41.79027 -74.09578 7699 ft 265 kts 134°
2026-05-08 01:57 41.77802 -74.07722 7385 ft 265 kts 134°
2026-05-08 01:57 41.76588 -74.05881 7109 ft 265 kts 134°
2026-05-08 01:58 41.75365 -74.04042 6861 ft 265 kts 133°
2026-05-08 01:58 41.74141 -74.02185 6537 ft 264 kts 134°
2026-05-08 01:58 41.72922 -74.00348 6249 ft 263 kts 133°
2026-05-08 01:58 41.71718 -73.98532 5960 ft 261 kts 133°
2026-05-08 01:59 41.70525 -73.96733 5674 ft 256 kts 133°
2026-05-08 01:59 41.69347 -73.94999 5459 ft 244 kts 139°
2026-05-08 01:59 41.67910 -73.93973 5267 ft 229 kts 166°
2026-05-08 01:59 41.66370 -73.93707 5037 ft 218 kts 185°
2026-05-08 02:00 41.64862 -73.93848 4790 ft 212 kts 189°
2026-05-08 02:00 41.63426 -73.94088 4540 ft 208 kts 191°
2026-05-08 02:00 41.61998 -73.94366 4280 ft 206 kts 191°
2026-05-08 02:00 41.60572 -73.94654 4010 ft 204 kts 191°
2026-05-08 02:01 41.59174 -73.94939 3739 ft 203 kts 191°
2026-05-08 02:01 41.57778 -73.95227 3469 ft 203 kts 191°
2026-05-08 02:01 41.56390 -73.95512 3200 ft 202 kts 190°
2026-05-08 02:01 41.55000 -73.95798 2930 ft 202 kts 190°
2026-05-08 02:02 41.53616 -73.96118 2657 ft 201 kts 199°
2026-05-08 02:02 41.52555 -73.97210 2401 ft 194 kts 242°
2026-05-08 02:02 41.52264 -73.98806 2214 ft 161 kts 269°
2026-05-08 02:02 41.52061 -74.00182 1946 ft 141 kts 263°
2026-05-08 02:03 41.51884 -74.01376 1720 ft 125 kts 262°
2026-05-08 02:03 41.51717 -74.02470 1539 ft 118 kts 262°
2026-05-08 02:03 41.51554 -74.03529 1383 ft 116 kts 262°
2026-05-08 02:03 41.51394 -74.04578 1219 ft 115 kts 262°
2026-05-08 02:04 41.51240 -74.05634 1045 ft 115 kts 262°
2026-05-08 02:04 41.51080 -74.06668 889 ft 114 kts 261°
2026-05-08 02:04 41.50921 -74.07700 734 ft 113 kts 260°
2026-05-08 02:04 41.50758 -74.08735 577 ft 114 kts 260°
2026-05-08 02:05 41.50596 -74.09751 470 ft 106 kts 261°
2026-05-08 02:05 41.50464 -74.10627 458 ft 87 kts 256°
2026-05-08 02:05 41.50367 -74.11247 460 ft 45 kts 256°